Location: Pitton
(51.0667°N, 1.7000°W)
Time: 21:53:55
(UTC+00:00)

Cosmos 1140 Rocket - Pass Details

Date: 17 September 2019
Orbit: 745 x 767 km, 74.1° (Epoch: 18 October)

Event Time Altitude Azimuth Distance (km) Brightness Sun altitude
Rises 20:57:59 0° 330° (NNW) 3,227 7.9 -24.1°
Reaches altitude 10° 21:00:28 10° 324° (NW) 2,293 7.0 -24.4°
Maximum altitude 21:05:18 41° 256° (WSW) 1,091 4.5 -25.0°
Enters shadow 21:07:07 30° 211° (SSW) 1,326 4.6 -25.3°
